Regional Weather Roundup
Issued by NWS

Home | Current Version | Previous Version | Graphics & Text | Print | Product List | Glossary On
Versions: 1 2 3 4 5 6 7 8 9 10 11 12 13 14 15 16 17 18 19 20 21 22 23 24 25 26 27 28 29 30 31 32 33 34 35 36 37 38 39 40 41 42 43 44 45 46 47 48 49 50
000
ASUS43 KDMX 191607
RWRIA

WEATHER ROUNDUP FOR IOWA
NATIONAL WEATHER SERVICE DES MOINES IA
1100 AM CDT TUE AUG 19 2014

NOTE: "FAIR" INDICATES FEW OR NO CLOUDS BELOW 12,000 FEET WITH NO
SIGNIFICANT WEATHER AND/OR OBSTRUCTIONS TO VISIBILITY.

* - THESE STATIONS ARE NOT NWS STATIONS...THUS NOT UNDER NWS
QUALITY CONTROL.  THEY ALSO DO NOT REPORT WEATHER SUCH
AS PRECIPITATION OR FOG.

IAZ001>003-012>014-020>022-031>034-043>046-191700-
   NORTHWEST IOWA

CITY           SKY/WX    TMP DP  RH WIND       PRES   REMARKS
CARROLL *      SUNNY     77  66  69 NW10      29.82S
CHEROKEE *     SUNNY     75  68  78 W5        29.84R
DENISON *      SUNNY     77  66  69 NW7       29.82S
LE MARS *      SUNNY     77  66  69 CALM      29.85R
ORANGE CITY *  SUNNY     75  63  64 NW3       29.84R
SHELDON *      SUNNY     75  66  73 W6        29.82S
SIOUX CITY     SUNNY     79  65  62 NW5       29.83S HX  81
SPENCER        SUNNY     75  65  70 CALM      29.83R
STORM LAKE *   SUNNY     75  68  78 NW6       29.85R
$$

IAZ055>058-069>071-079>083-090>094-191700-
   SOUTHWEST IOWA

CITY           SKY/WX    TMP DP  RH WIND       PRES   REMARKS
ATLANTIC *     SUNNY     79  68  69 NW6       29.82S HX  81
AUDUBON *      SUNNY     81  72  74 NW5       29.85R HX  84
CLARINDA *     SUNNY     81  70  69 CALM      29.84S HX  84
COUNCIL BLFS * SUNNY     81  68  65 CALM      29.84R HX  83
CRESTON *      SUNNY     79  68  69 W5        29.84R HX  81
HARLAN  *      SUNNY     77  68  73 NW7       29.87R
LAMONI         SUNNY     81  71  71 W10       29.82R HX  85
RED OAK *      SUNNY     81  68  65 NW6       29.83S HX  83
SHENANDOAH *   SUNNY     81  70  69 VRB5      29.85R HX  84
$$

IAZ047>049-059>061-072>074-084-191700-
   CENTRAL IOWA

CITY           SKY/WX    TMP DP  RH WIND       PRES   REMARKS
AMES           SUNNY     78  66  66 NW10      29.80S HX  80
ANKENY *       SUNNY     79  66  65 W7        29.80S HX  81
CHARITON *     SUNNY     79  70  73 NW8       29.80S HX  81
DES MOINES     MOSUNNY   80  66  62 NW6       29.80R HX  82
GRINNELL*      SUNNY     77  66  69 NW9G16    29.80R
KNOXVILLE *    SUNNY     79  66  65 NW10G16   29.78S HX  81
MARSHALLTOWN   MOSUNNY   77  66  68 NW12      29.79S
PELLA *        SUNNY     81  66  61 NW9       29.80S HX  83
PERRY *          N/A     77  66  69 NW5       29.82R
$$

IAZ004>006-015-016-023>025-035-036-191700-
   NORTH CENTRAL IOWA

CITY           SKY/WX    TMP DP  RH WIND       PRES   REMARKS
ALGONA *       SUNNY     75  63  64 NW9       29.83R
CLARION *      PTSUNNY   73  66  78 NW9       29.81S
ESTHERVILLE    SUNNY     74  64  71 NW7       29.83R
FORT DODGE *   SUNNY     75  66  73 NW9       29.82S
MASON CITY     MOSUNNY   74  63  68 NW13      29.81S
FOREST CITY *  MOSUNNY   73  64  73 NW10      29.81S
IOWA FALLS *     N/A     75  64  69 NW12      29.81S
$$

IAZ007>011-017>019-026>030-037>042-050>054-066-191700-
   NORTHEAST IOWA

CITY           SKY/WX    TMP DP  RH WIND       PRES   REMARKS
CEDAR RAPIDS   MOSUNNY   78  67  68 W9        29.77R HX  80
CHARLES CITY * MOSUNNY   73  64  73 NW8G15    29.79R
CLINTON *      MOSUNNY   79  70  73 SW13G18   29.79S HX  81
DECORAH *      PTSUNNY   72  64  78 VRB7G15   29.76S
DUBUQUE        PTSUNNY   77  66  68 W10       29.77R
MONTICELLO *   PTSUNNY   79  68  69 VRB6G14   29.77R HX  81
OELWEIN *      PTSUNNY   73  66  78 NW10      29.79R
WATERLOO       PTSUNNY   76  65  68 NW9       29.77R
$$

IAZ064-065-067-068-078-191700-
   EAST CENTRAL IOWA

CITY           SKY/WX    TMP DP  RH WIND       PRES   REMARKS
DAVENPORT      PTSUNNY   78  70  76 SW14      29.78S HX  80
IOWA CITY      LGT RAIN  81  67  62 W10       29.79R HX  83
MT. PLEASANT * PTSUNNY   77  68  73 S5        29.79F
MUSCATINE *    PTSUNNY   79  72  78 S9        29.78F HX  82
QUAD CITIES    CLOUDY    76  69  79 SW17G24   29.77F
$$

IAZ062-063-075>077-085>089-095>099-191700-
   SOUTHEAST IOWA

CITY           SKY/WX    TMP DP  RH WIND       PRES   REMARKS
BURLINGTON     LGT RAIN  71  67  87 SW3       29.79F
FAIRFIELD *    MOSUNNY   81  72  74 W6        29.79S HX  84
FORT MADISON * SUNNY     75  72  88 CALM      29.80F
KEOKUK *       SUNNY     75  68  78 VRB5      29.79R
OSKALOOSA *      N/A     79  72  78 NW5       29.80R HX  82
CENTERVILLE *  SUNNY     81  73  78 NW6       29.81S HX  85
OTTUMWA        MOSUNNY   81  70  69 W7        29.77S HX  84
WASHINGTON *   SUNNY     79  72  78 NW6       29.79S HX  82
$$

ABBREVIATIONS USED IN REMARKS
   TC - TEMPERATURES IN CELSIUS
  WCI - WIND CHILL INDEX
   HX - HEAT INDEX
  VSB - VISIBILITY
$$




USA.gov is the U.S. government's official web portal to all federal, state and local government web resources and services.